Location: Hamburg
(53.5554°N, 9.9941°E)
Time: 13:57:37
(UTC+01:00)

Amateur Radio Satellites - All Passes

Search period start: 24 November 2017 13:27
Search period end: 25 November 2017 13:27
Location: Hamburg, 53.5554°N, 9.9941°E

Satellite Date Start Highest point End Downlink Frequencies (MHz)
Time Altitude Azimuth
M-CUBED/EXP-1 PRIME 24 Nov 13:47:38 13:51:23 81° 249° (WSW) 13:55:31 437.505
SPROUT 24 Nov 13:55:15 13:59:10 36° 295° (WNW) 14:03:03 437.525
DX 1 24 Nov 13:58:19 14:02:35 46° 100° (E) 14:06:48 434.975-435.025
YUBILEINY 24 Nov 14:11:23 14:18:06 23° 48° (NE) 14:24:47 435.215
Oscar 19 24 Nov 14:13:33 14:17:25 21° 270° (W) 14:21:20 437.125/150
AO-91 24 Nov 14:14:09 14:18:27 24° 270° (W) 14:22:42 145.960
AO-7 24 Nov 14:17:20 14:25:37 81° 65° (ENE) 14:33:59 .
ITAMSAT 1 24 Nov 14:32:14 14:37:24 61° 67° (ENE) 14:42:34 435.822/435.867
UKube-1 24 Nov 14:33:06 14:37:26 64° 103° (ESE) 14:41:44 .
HO-68 24 Nov 14:46:11 14:47:55 11° 24° (NNE) 14:49:38 435.675
NO-84 24 Nov 14:49:10 14:52:24 28° 140° (SE) 14:55:50 435.350 FM
50 SAT 24 Nov 14:53:03 14:56:02 35° 292° (WNW) 14:58:59 437.505
O/OREOS (USA 219) 24 Nov 14:59:27 15:03:27 28° 315° (NW) 15:07:28 437.305
VELOX 1 24 Nov 15:00:55 15:03:59 19° 305° (NW) 15:07:03 145.980
MOZHAYETS 4 24 Nov 15:02:18 15:06:23 31° 95° (E) 15:10:27
Gurwin Techsat 1B 24 Nov 15:08:46 15:10:43 12° 278° (W) 15:12:40 435.225
BEESAT 24 Nov 15:10:28 15:14:35 28° 94° (E) 15:18:40 436.000
ITUPSAT 1 24 Nov 15:22:25 15:26:47 34° 96° (E) 15:31:07 437.325
CUBESAT XI-V 24 Nov 15:23:46 15:26:33 15° 86° (E) 15:29:21 437.345
DOVE 4 24 Nov 15:24:41 15:29:26 37° 63° (ENE) 15:34:17 437.250
M-CUBED/EXP-1 PRIME 24 Nov 15:25:46 15:26:36 11° 270° (W) 15:27:28 437.505
DX 1 24 Nov 15:34:51 15:38:35 27° 299° (WNW) 15:42:17 434.975-435.025
XW-2D 24 Nov 15:54:19 15:56:12 14° 56° (ENE) 15:58:05 145.860 - 145.880
RS-15 24 Nov 16:01:01 16:04:04 11° 87° (E) 16:07:05 29.354- 29.394
YUBILEINY 24 Nov 16:07:56 16:16:50 71° 74° (ENE) 16:25:39 435.215
XW-2B 24 Nov 16:08:33 16:11:02 17° 59° (ENE) 16:13:32 145.730 - 145.750
NUDT-PHONESAT 24 Nov 16:08:56 16:10:37 13° 56° (ENE) 16:12:20 437.300
UKube-1 24 Nov 16:09:49 16:13:04 21° 303° (WNW) 16:16:19 .
AO-7 24 Nov 16:12:11 16:19:17 31° 268° (W) 16:26:27 .
ITAMSAT 1 24 Nov 16:12:53 16:17:14 26° 268° (W) 16:21:37 435.822/435.867
NO-84 24 Nov 16:25:31 16:29:23 85° 158° (SSE) 16:33:31 435.350 FM
HO-68 24 Nov 16:27:31 16:33:23 28° 48° (NE) 16:39:18 435.675
CUTE-I 24 Nov 16:29:38 16:34:25 34° 60° (ENE) 16:39:13 437.470
KKS-1 24 Nov 16:29:50 16:32:26 15° 88° (E) 16:34:59 437.445
XW-2C 24 Nov 16:33:27 16:36:40 28° 65° (ENE) 16:39:56 145.795 - 145.815
MOZHAYETS 4 24 Nov 16:39:22 16:43:39 41° 294° (WNW) 16:47:57
LilacSat-2 24 Nov 16:39:40 16:43:05 34° 67° (ENE) 16:46:33 437.200
XW-2F 24 Nov 16:40:42 16:44:00 31° 66° (ENE) 16:47:19 145.980 - 146.000
O/OREOS (USA 219) 24 Nov 16:43:45 16:44:27 10° 340° (NNW) 16:45:09 437.305
SEEDS 24 Nov 16:47:04 16:47:41 10° 50° (NE) 16:48:18 437.485
BEESAT 24 Nov 16:48:00 16:52:35 49° 294° (WNW) 16:57:09 436.000
CUBESAT XI-V 24 Nov 16:59:52 17:04:35 87° 285° (WNW) 17:09:18 437.345
ITUPSAT 1 24 Nov 17:00:14 17:04:41 40° 296° (WNW) 17:09:07 437.325
DOVE 4 24 Nov 17:02:03 17:07:00 45° 263° (W) 17:12:08 437.250
KAITUO 1B 24 Nov 17:02:08 17:05:36 39° 68° (ENE) 17:09:07 145.475/437.950
UWE-3 24 Nov 17:09:28 17:10:08 10° 51° (NE) 17:10:48 435.000/436.395/437.385
XW-2D 24 Nov 17:26:04 17:29:49 85° 256° (WSW) 17:33:37 145.860 - 145.880
NUDT-PHONESAT 24 Nov 17:40:15 17:43:55 86° 254° (WSW) 17:47:36 437.300
XW-2B 24 Nov 17:41:06 17:44:49 62° 258° (WSW) 17:48:34 145.730 - 145.750
CUBEBUG 2 24 Nov 17:52:34 17:56:37 34° 65° (ENE) 18:00:33 437.445
CUTE 1.7 + AOD 2 24 Nov 17:55:02 17:59:07 52° 70° (ENE) 18:03:15 437.475
RS-15 24 Nov 18:01:40 18:12:58 45° 112° (ESE) 18:24:10 29.354- 29.394
NO-84 24 Nov 18:02:53 18:06:53 71° 3° (N) 18:11:06 435.350 FM
KKS-1 24 Nov 18:05:06 18:09:36 84° 287° (WNW) 18:14:04 437.445
YUBILEINY 24 Nov 18:05:20 18:13:04 36° 278° (W) 18:20:46 435.215
XW-2C 24 Nov 18:07:24 18:10:48 32° 264° (W) 18:14:15 145.795 - 145.815
XW-2A 24 Nov 18:07:28 18:09:59 20° 63° (ENE) 18:12:32 145.665 - 145.685
CUTE-I 24 Nov 18:09:05 18:14:19 51° 260° (W) 18:19:35 437.470
HO-68 24 Nov 18:13:10 18:20:24 90° 357° (N) 18:27:40 435.675
LilacSat-2 24 Nov 18:14:12 18:17:26 27° 266° (W) 18:20:42 437.200
AAUSAT CUBESAT 2 24 Nov 18:14:45 18:18:16 27° 63° (ENE) 18:21:49 437.432
XW-2F 24 Nov 18:14:49 18:18:07 29° 265° (W) 18:21:26 145.980 - 146.000
SEEDS 24 Nov 18:18:24 18:22:29 56° 71° (ENE) 18:26:38 437.485
STARS 24 Nov 18:19:00 18:23:23 61° 102° (ESE) 18:27:42 437.465
ZACube-1 24 Nov 18:24:31 18:27:57 24° 62° (ENE) 18:31:21 437.345
BEESAT 24 Nov 18:28:07 18:29:19 11° 314° (NW) 18:30:32 436.000
KAITUO 1B 24 Nov 18:36:48 18:39:45 22° 267° (W) 18:42:43 145.475/437.950
CUBESAT XI-V 24 Nov 18:38:19 18:41:20 17° 306° (NW) 18:44:21 437.345
UWE-3 24 Nov 18:41:29 18:45:44 55° 70° (ENE) 18:49:55 435.000/436.395/437.385
XW-2D 24 Nov 19:04:33 19:04:38 10° 275° (W) 19:04:43 145.860 - 145.880
AO-73 24 Nov 19:12:22 19:16:31 55° 70° (ENE) 19:20:36 145.935
STRAND 1 24 Nov 19:21:32 19:26:14 35° 96° (E) 19:30:53 437.568
Oscar 11 24 Nov 19:24:33 19:28:43 52° 69° (ENE) 19:32:56 .
CUBEBUG 2 24 Nov 19:29:05 19:33:14 36° 264° (W) 19:37:17 437.445
CUTE 1.7 + AOD 2 24 Nov 19:31:59 19:35:15 22° 269° (W) 19:38:34 437.475
XW-2A 24 Nov 19:39:25 19:42:31 36° 262° (W) 19:45:39 145.665 - 145.685
NO-84 24 Nov 19:40:13 19:44:21 71° 203° (SSW) 19:48:36 435.350 FM
KKS-1 24 Nov 19:42:50 19:45:31 16° 307° (NW) 19:48:11 437.445
DELFI C3 24 Nov 19:46:28 19:49:36 22° 61° (ENE) 19:52:45 145.870
AAUSAT CUBESAT 2 24 Nov 19:49:39 19:53:35 41° 263° (W) 19:57:34 437.432
SEEDS 24 Nov 19:55:25 19:58:31 20° 270° (W) 20:01:39 437.485
STARS 24 Nov 19:55:58 19:59:23 22° 302° (WNW) 20:02:45 437.465
EO-88 24 Nov 19:56:47 19:58:50 15° 58° (ENE) 20:00:53 145.990 - 145.960
ZACube-1 24 Nov 19:59:53 20:04:01 49° 260° (W) 20:08:07 437.345
FO-29 24 Nov 20:03:23 20:10:27 35° 90° (E) 20:17:10 435.910
HO-68 24 Nov 20:03:30 20:09:05 24° 272° (W) 20:14:42 435.675
O/OREOS (USA 219) 24 Nov 20:05:02 20:07:48 15° 32° (NNE) 20:10:31 437.305
Max Valier Satellite 24 Nov 20:06:07 20:09:00 22° 63° (ENE) 20:11:54 145.860
ISS 24 Nov 20:09:46 20:11:42 15° 144° (SE) 20:13:37 437.550
RS-15 24 Nov 20:12:24 20:24:49 80° 319° (NW) 20:37:00 29.354- 29.394
UWE-3 24 Nov 20:19:11 20:22:31 21° 269° (W) 20:25:48 435.000/436.395/437.385
nSIGHT-1 24 Nov 20:48:43 20:51:30 27° 154° (SSE) 20:54:17 .
AO-73 24 Nov 20:49:54 20:53:04 20° 269° (W) 20:56:13 145.935
STRAND 1 24 Nov 21:00:41 21:05:32 44° 296° (WNW) 21:10:21 437.568
Oscar 11 24 Nov 21:01:45 21:05:09 22° 269° (W) 21:08:34 .
ESTCUBE 1 24 Nov 21:12:16 21:15:07 17° 54° (NE) 21:17:58 437.505/2401.250
NO-84 24 Nov 21:17:55 21:21:16 23° 222° (SW) 21:24:38 435.350 FM
DELFI C3 24 Nov 21:20:13 21:24:05 49° 260° (W) 21:28:00 145.870
EO-88 24 Nov 21:28:24 21:32:00 72° 257° (WSW) 21:35:39 145.990 - 145.960
Max Valier Satellite 24 Nov 21:39:11 21:42:39 40° 262° (W) 21:46:08 145.860
SO-50 24 Nov 21:41:00 21:45:21 52° 127° (SE) 21:49:46 436.795
LO-87 24 Nov 21:41:12 21:44:15 26° 65° (ENE) 21:47:17 145.935 - 145.965
O/OREOS (USA 219) 24 Nov 21:43:42 21:48:14 56° 55° (NE) 21:52:42 437.305
ISS 24 Nov 21:44:28 21:47:36 43° 163° (SSE) 21:50:44 437.550
SPROUT 24 Nov 21:46:53 21:47:26 10° 49° (NE) 21:47:58 437.525
FO-29 24 Nov 21:48:11 21:56:03 71° 292° (WNW) 22:03:30 435.910
PRISM 24 Nov 21:48:56 21:51:18 15° 88° (E) 21:53:39 437.425
UNISAT 6 24 Nov 21:58:14 22:02:21 44° 99° (E) 22:06:26 437.425
TIGRISAT 24 Nov 22:01:31 22:05:38 44° 98° (E) 22:09:41 435.000
nSIGHT-1 24 Nov 22:24:13 22:27:24 58° 173° (S) 22:30:34 .
RS-15 24 Nov 22:27:13 22:39:09 51° 349° (N) 22:50:42 29.354- 29.394
STRAND 1 24 Nov 22:42:22 22:43:31 11° 317° (NW) 22:44:41 437.568
ESTCUBE 1 24 Nov 22:46:49 22:51:19 90° 215° (SW) 22:55:52 437.505/2401.250
VELOX 1 24 Nov 22:51:19 22:54:56 25° 59° (ENE) 22:58:33 145.980
PCSat 24 Nov 23:13:35 23:17:54 25° 111° (ESE) 23:22:15 145.827
LO-87 24 Nov 23:14:17 23:17:34 32° 263° (W) 23:20:52 145.935 - 145.965
QB50P2 24 Nov 23:15:35 23:18:19 17° 89° (E) 23:21:02 145.880/145.840
SPROUT 24 Nov 23:18:15 23:22:25 54° 70° (ENE) 23:26:36 437.525
ISS 24 Nov 23:20:38 23:23:52 62° 183° (S) 23:27:07 437.550
SO-50 24 Nov 23:21:43 23:25:58 40° 329° (NNW) 23:30:17 436.795
PRISM 24 Nov 23:22:55 23:27:07 78° 287° (WNW) 23:31:16 437.425
O/OREOS (USA 219) 24 Nov 23:23:39 23:27:20 24° 255° (WSW) 23:30:59 437.305
DX 1 24 Nov 23:25:39 23:28:22 16° 54° (NE) 23:31:05 434.975-435.025
AIST 2D 24 Nov 23:26:33 23:29:58 45° 99° (E) 23:33:24 435.315
FO-29 24 Nov 23:33:54 23:39:51 24° 314° (NW) 23:45:40 435.910
UNISAT 6 24 Nov 23:35:18 23:38:55 27° 298° (WNW) 23:42:29 437.425
TIGRISAT 24 Nov 23:38:34 23:42:10 27° 298° (WNW) 23:45:44 435.000
50 SAT 24 Nov 23:54:14 23:56:38 19° 62° (ENE) 23:59:02 437.505
DUCHIFAT 1 24 Nov 23:58:15 00:01:55 29° 95° (E) 00:05:32 145.980
UKube-1 24 Nov 23:58:52 00:02:02 20° 57° (ENE) 00:05:14 .
nSIGHT-1 25 Nov 00:00:20 00:03:28 50° 193° (SSW) 00:06:34 .
EO-79 25 Nov 00:10:17 00:14:22 46° 99° (E) 00:18:24 145.935-145.965
NANOSAT C BR1 25 Nov 00:10:54 00:14:54 42° 98° (E) 00:18:52 145.865
ESTCUBE 1 25 Nov 00:26:26 00:28:48 14° 274° (W) 00:31:11 437.505/2401.250
POLYITAN 1 25 Nov 00:26:40 00:30:52 66° 103° (ESE) 00:35:01 437.675
VELOX 1 25 Nov 00:26:44 00:31:06 54° 259° (W) 00:35:30 145.980
BUGSAT 1 25 Nov 00:35:46 00:38:43 19° 91° (E) 00:41:38 437.445
MOZHAYETS 4 25 Nov 00:36:20 00:38:11 12° 50° (NE) 00:40:00
Oscar 19 25 Nov 00:38:35 00:41:38 16° 86° (E) 00:44:41 437.125/150
RS-15 25 Nov 00:42:17 00:54:18 57° 22° (NNE) 01:05:42 29.354- 29.394
BEESAT 25 Nov 00:48:00 00:50:26 14° 49° (NE) 00:52:53 436.000
QB50P2 25 Nov 00:50:22 00:54:35 69° 288° (WNW) 00:58:45 145.880/145.840
SPROUT 25 Nov 00:55:17 00:58:37 22° 269° (W) 01:01:57 437.525
PCSat 25 Nov 00:55:22 01:00:48 77° 312° (NW) 01:06:17 145.827
ISS 25 Nov 00:57:05 01:00:06 34° 202° (SSW) 01:03:06 437.550
DX 1 25 Nov 00:59:33 01:03:57 89° 77° (ENE) 01:08:23 434.975-435.025
PRISM 25 Nov 00:59:38 01:01:43 14° 307° (NW) 01:03:47 437.425
ITUPSAT 1 25 Nov 00:59:43 01:02:42 17° 52° (NE) 01:05:41 437.325
AIST 2D 25 Nov 01:00:18 01:02:53 19° 298° (WNW) 01:05:28 435.315
SO-50 25 Nov 01:04:00 01:07:31 21° 352° (N) 01:11:05 436.795
50 SAT 25 Nov 01:25:27 01:28:30 37° 261° (W) 01:31:34 437.505
UKube-1 25 Nov 01:33:20 01:37:39 67° 256° (WSW) 01:42:00 .
DUCHIFAT 1 25 Nov 01:33:47 01:37:40 38° 294° (WNW) 01:41:31 145.980
Gurwin Techsat 1B 25 Nov 01:34:09 01:38:54 32° 94° (E) 01:43:36 435.225
nSIGHT-1 25 Nov 01:36:52 01:39:14 19° 212° (SSW) 01:41:35 .
BEESAT 3 25 Nov 01:41:58 01:44:57 20° 117° (ESE) 01:47:56 437.485
EO-79 25 Nov 01:46:27 01:49:55 25° 299° (WNW) 01:53:22 145.935-145.965
NANOSAT C BR1 25 Nov 01:46:54 01:50:28 27° 298° (WNW) 01:54:00 145.865
AO-91 25 Nov 01:56:58 02:01:36 61° 101° (E) 02:05:42 145.960
POLYITAN 1 25 Nov 02:03:14 02:06:15 19° 302° (WNW) 02:09:14 437.675
MOZHAYETS 4 25 Nov 02:09:58 02:14:28 61° 70° (ENE) 02:18:59
BUGSAT 1 25 Nov 02:10:26 02:14:24 54° 290° (WNW) 02:18:19 437.445
AO-7 25 Nov 02:12:57 02:18:05 17° 83° (E) 02:23:11 .
Oscar 19 25 Nov 02:16:33 02:21:45 84° 106° (ESE) 02:26:57 437.125/150
BEESAT 25 Nov 02:22:40 02:27:23 66° 70° (ENE) 02:32:08 436.000
QB50P2 25 Nov 02:27:54 02:29:37 12° 308° (NW) 02:31:19 145.880/145.840
CUBESAT XI-V 25 Nov 02:32:38 02:36:39 30° 62° (ENE) 02:40:43 437.345
ITUPSAT 1 25 Nov 02:35:03 02:39:50 81° 73° (ENE) 02:44:39 437.325
ISS 25 Nov 02:35:23 02:35:51 10° 221° (SW) 02:36:20 437.550
DX 1 25 Nov 02:38:31 02:40:47 14° 273° (W) 02:43:04 434.975-435.025
ITAMSAT 1 25 Nov 02:40:17 02:42:33 13° 84° (E) 02:44:49 435.822/435.867
PCSat 25 Nov 02:40:23 02:45:02 28° 335° (NNW) 02:49:41 145.827
SO-50 25 Nov 02:45:32 02:49:21 25° 17° (NNE) 02:53:12 436.795
M-CUBED/EXP-1 PRIME 25 Nov 02:53:31 02:57:33 30° 101° (E) 03:01:38 437.505
RS-15 25 Nov 02:55:40 03:07:42 78° 232° (SW) 03:19:02 29.354- 29.394
AO-85 25 Nov 02:59:25 03:01:38 15° 113° (ESE) 03:03:54 145.980
BEESAT 2 25 Nov 03:02:14 03:05:55 35° 123° (ESE) 03:09:38 435.950
Gurwin Techsat 1B 25 Nov 03:13:55 03:19:05 51° 294° (WNW) 03:24:12 435.225
BEESAT 3 25 Nov 03:18:06 03:22:06 71° 317° (NW) 03:26:07 437.485
YUBILEINY 25 Nov 03:25:03 03:30:05 17° 68° (ENE) 03:35:09 435.215
KKS-1 25 Nov 03:33:12 03:37:09 31° 62° (ENE) 03:41:06 437.445
AO-91 25 Nov 03:34:00 03:37:36 22° 303° (WNW) 03:40:56 145.960
STARS 25 Nov 03:46:37 03:49:53 20° 57° (ENE) 03:53:09 437.465
MOZHAYETS 4 25 Nov 03:48:33 03:52:01 21° 270° (W) 03:55:30
Oscar 19 25 Nov 03:56:43 04:00:31 21° 306° (NW) 04:04:20 437.125/150
BEESAT 25 Nov 04:02:00 04:05:36 21° 269° (W) 04:09:14 436.000
AO-7 25 Nov 04:04:15 04:12:35 65° 106° (ESE) 04:20:53 .
CUBESAT XI-V 25 Nov 04:09:30 04:13:54 44° 262° (W) 04:18:22 437.345
ITUPSAT 1 25 Nov 04:15:10 04:18:17 17° 272° (W) 04:21:25 437.325
ITAMSAT 1 25 Nov 04:17:46 04:23:01 70° 104° (ESE) 04:28:12 435.822/435.867
SO-50 25 Nov 04:26:00 04:30:36 63° 40° (NE) 04:35:14 436.795
PCSat 25 Nov 04:26:15 04:30:10 20° 1° (N) 04:34:05 145.827
M-CUBED/EXP-1 PRIME 25 Nov 04:27:41 04:32:03 48° 299° (WNW) 04:36:31 437.505
AO-85 25 Nov 04:37:22 04:41:20 88° 147° (SSE) 04:45:35 145.980
BEESAT 2 25 Nov 04:39:40 04:43:35 45° 323° (NW) 04:47:32 435.950
FO-29 25 Nov 04:42:28 04:45:30 13° 29° (NNE) 04:48:35 435.910
DOVE 4 25 Nov 04:54:21 04:59:13 38° 95° (E) 05:03:49 437.250
Gurwin Techsat 1B 25 Nov 04:55:38 04:57:55 13° 315° (NW) 05:00:12 435.225
BEESAT 3 25 Nov 04:57:03 05:00:16 22° 339° (NNW) 05:03:29 437.485
STRAND 1 25 Nov 05:06:29 05:10:10 20° 53° (NE) 05:13:50 437.568
RS-15 25 Nov 05:09:04 05:18:14 28° 259° (WSW) 05:27:04 29.354- 29.394
KKS-1 25 Nov 05:09:20 05:13:36 42° 262° (W) 05:17:53 437.445
YUBILEINY 25 Nov 05:16:28 05:25:03 63° 92° (E) 05:33:44 435.215
STARS 25 Nov 05:21:23 05:25:48 69° 257° (WSW) 05:30:14 437.465
XW-2C 25 Nov 05:33:36 05:36:14 18° 90° (E) 05:38:52 145.795 - 145.815
HO-68 25 Nov 05:36:13 05:39:03 12° 79° (ENE) 05:41:52 435.675
XW-2F 25 Nov 05:40:15 05:43:02 19° 91° (E) 05:45:48 145.980 - 146.000
LilacSat-2 25 Nov 05:40:34 05:43:36 22° 92° (E) 05:46:37 437.200
AO-7 25 Nov 05:57:23 06:05:06 44° 308° (NW) 06:12:48 .
ITAMSAT 1 25 Nov 05:57:52 06:02:04 25° 304° (NW) 06:06:15 435.822/435.867
KAITUO 1B 25 Nov 06:00:36 06:03:43 24° 93° (E) 06:06:50 145.475/437.950
M-CUBED/EXP-1 PRIME 25 Nov 06:03:51 06:05:31 12° 318° (NW) 06:07:13 437.505
SO-50 25 Nov 06:06:49 06:10:49 29° 240° (WSW) 06:14:51 436.795
PCSat 25 Nov 06:10:32 06:15:16 29° 27° (NNE) 06:19:59 145.827
AO-85 25 Nov 06:18:46 06:22:16 27° 337° (NNW) 06:25:59 145.980
BEESAT 2 25 Nov 06:19:13 06:22:12 19° 346° (NNW) 06:25:12 435.950
CUTE-I 25 Nov 06:19:19 06:24:24 40° 97° (E) 06:29:26 437.470
FO-29 25 Nov 06:21:59 06:28:18 34° 53° (NE) 06:35:01 435.910
XW-2D 25 Nov 06:26:02 06:29:49 58° 101° (E) 06:33:36 145.860 - 145.880
DOVE 4 25 Nov 06:32:02 06:36:54 40° 296° (WNW) 06:41:34 437.250
BEESAT 3 25 Nov 06:36:28 06:39:04 16° 2° (N) 06:41:40 437.485
NUDT-PHONESAT 25 Nov 06:37:30 06:41:09 53° 100° (E) 06:44:49 437.300
XW-2B 25 Nov 06:41:00 06:44:51 80° 103° (ESE) 06:48:41 145.730 - 145.750
STRAND 1 25 Nov 06:43:34 06:48:44 89° 238° (WSW) 06:53:56 437.568
STARS 25 Nov 07:02:14 07:02:59 10° 276° (W) 07:03:44 437.465
XW-2C 25 Nov 07:06:59 07:10:44 55° 289° (WNW) 07:14:29 145.795 - 145.815
CUTE 1.7 + AOD 2 25 Nov 07:08:56 07:13:02 43° 98° (E) 07:17:08 437.475
CUBEBUG 2 25 Nov 07:13:03 07:16:44 29° 94° (E) 07:20:21 437.445
XW-2F 25 Nov 07:13:43 07:17:24 50° 290° (WNW) 07:21:06 145.980 - 146.000
YUBILEINY 25 Nov 07:14:11 07:22:23 42° 297° (WNW) 07:30:40 435.215
LilacSat-2 25 Nov 07:14:23 07:18:04 44° 291° (WNW) 07:21:44 437.200
HO-68 25 Nov 07:21:27 07:28:31 55° 101° (E) 07:35:31 435.675
AAUSAT CUBESAT 2 25 Nov 07:25:20 07:28:33 21° 91° (E) 07:31:44 437.432
UNISAT 6 25 Nov 07:28:30 07:31:06 15° 54° (NE) 07:33:40 437.425
SEEDS 25 Nov 07:31:03 07:35:11 46° 99° (E) 07:39:17 437.485
TIGRISAT 25 Nov 07:31:42 07:34:16 15° 54° (NE) 07:36:47 435.000
KAITUO 1B 25 Nov 07:34:17 07:37:49 38° 292° (WNW) 07:41:21 145.475/437.950
ZACube-1 25 Nov 07:41:52 07:44:57 20° 91° (E) 07:48:03 437.345
AO-7 25 Nov 07:50:44 07:55:53 18° 333° (NNW) 08:01:04 .
PCSat 25 Nov 07:53:56 07:59:25 84° 50° (NE) 08:04:51 145.827
BEESAT 2 25 Nov 07:58:25 08:01:17 18° 10° (N) 08:04:07 435.950
CUTE-I 25 Nov 07:59:28 08:04:29 41° 297° (WNW) 08:09:28 437.470
UWE-3 25 Nov 08:00:41 08:04:44 49° 99° (E) 08:08:46 435.000/436.395/437.385
AO-85 25 Nov 08:00:54 08:03:59 19° 2° (N) 08:07:13 145.980
XW-2D 25 Nov 08:00:58 08:03:38 18° 300° (WNW) 08:06:18 145.860 - 145.880
FO-29 25 Nov 08:05:35 08:12:40 78° 256° (WSW) 08:20:29 435.910
NUDT-PHONESAT 25 Nov 08:12:02 08:14:42 19° 299° (WNW) 08:17:22 437.300
DOVE 4 25 Nov 08:13:03 08:13:15 10° 317° (NW) 08:13:28 437.250
BEESAT 3 25 Nov 08:14:22 08:17:47 26° 26° (NNE) 08:21:11 437.485
XW-2B 25 Nov 08:16:23 08:18:30 15° 303° (WNW) 08:20:38 145.730 - 145.750
STRAND 1 25 Nov 08:25:26 08:28:40 17° 273° (W) 08:31:55 437.568
XW-2A 25 Nov 08:26:42 08:30:05 89° 104° (ESE) 08:33:29 145.665 - 145.685
AO-73 25 Nov 08:29:38 08:33:40 48° 99° (E) 08:37:42 145.935
Oscar 11 25 Nov 08:41:07 08:45:17 44° 98° (E) 08:49:27 .
PRISM 25 Nov 08:43:30 08:46:55 25° 61° (ENE) 08:50:22 437.425
CUTE 1.7 + AOD 2 25 Nov 08:45:05 08:48:43 28° 297° (WNW) 08:52:21 437.475
CUBEBUG 2 25 Nov 08:49:35 08:53:27 37° 294° (WNW) 08:57:15 437.445
DELFI C3 25 Nov 08:51:28 08:53:45 15° 88° (E) 08:56:00 145.870
AAUSAT CUBESAT 2 25 Nov 09:00:11 09:04:18 54° 290° (WNW) 09:08:24 437.432
UNISAT 6 25 Nov 09:02:42 09:07:12 85° 77° (ENE) 09:11:38 437.425
Max Valier Satellite 25 Nov 09:03:39 09:05:18 13° 88° (E) 09:06:58 145.860
TIGRISAT 25 Nov 09:05:50 09:10:20 84° 75° (ENE) 09:14:46 435.000
SEEDS 25 Nov 09:07:07 09:10:41 26° 298° (WNW) 09:14:13 437.485
HO-68 25 Nov 09:09:27 09:16:10 44° 303° (WNW) 09:22:50 435.675
ZACube-1 25 Nov 09:17:31 09:21:35 55° 290° (WNW) 09:25:39 437.345
YUBILEINY 25 Nov 09:17:59 09:22:23 14° 326° (NNW) 09:26:49 435.215
EO-79 25 Nov 09:35:18 09:37:26 14° 53° (NE) 09:39:34 145.935-145.965
NANOSAT C BR1 25 Nov 09:35:56 09:37:45 13° 52° (NE) 09:39:35 145.865
BEESAT 2 25 Nov 09:36:12 09:40:01 37° 33° (NNE) 09:43:47 435.950
UWE-3 25 Nov 09:37:40 09:40:58 23° 299° (WNW) 09:44:16 435.000/436.395/437.385
PCSat 25 Nov 09:38:07 09:42:14 22° 251° (WSW) 09:46:19 145.827
AO-85 25 Nov 09:41:44 09:45:38 30° 26° (NNE) 09:49:48 145.980
CUTE-I 25 Nov 09:42:03 09:43:14 11° 319° (NW) 09:44:25 437.470
AO-7 25 Nov 09:42:25 09:45:31 13° 1° (N) 09:48:36 .
POLYITAN 1 25 Nov 09:50:58 09:53:49 18° 57° (ENE) 09:56:41 437.675
BEESAT 3 25 Nov 09:51:46 09:55:45 81° 228° (SW) 09:59:41 437.485
FO-29 25 Nov 09:53:51 09:59:02 21° 279° (W) 10:04:33 435.910
XW-2A 25 Nov 10:01:16 10:02:14 11° 303° (WNW) 10:03:12 145.665 - 145.685
AO-73 25 Nov 10:06:20 10:09:41 24° 299° (WNW) 10:13:02 145.935
AIST 2D 25 Nov 10:06:23 10:09:42 44° 70° (ENE) 10:13:03 435.315
QB50P2 25 Nov 10:13:40 10:17:18 29° 63° (ENE) 10:20:57 145.880/145.840
Oscar 11 25 Nov 10:17:35 10:21:16 28° 298° (WNW) 10:24:57 .
PRISM 25 Nov 10:17:58 10:21:58 46° 260° (W) 10:26:01 437.425
EO-88 25 Nov 10:23:56 10:27:34 59° 101° (E) 10:31:12 145.990 - 145.960
DELFI C3 25 Nov 10:24:58 10:28:59 74° 287° (WNW) 10:32:58 145.870
Oscar 19 25 Nov 10:26:54 10:27:45 10° 42° (NE) 10:28:36 437.125/150
ESTCUBE 1 25 Nov 10:34:16 10:36:22 13° 85° (E) 10:38:28 437.505/2401.250
LO-87 25 Nov 10:35:26 10:37:13 13° 88° (E) 10:38:59 145.935 - 145.965
Max Valier Satellite 25 Nov 10:35:55 10:39:36 74° 286° (WNW) 10:43:16 145.860
UNISAT 6 25 Nov 10:41:57 10:44:31 15° 273° (W) 10:47:02 437.425
TIGRISAT 25 Nov 10:45:02 10:47:36 15° 273° (W) 10:50:10 435.000
DUCHIFAT 1 25 Nov 10:55:33 10:59:35 48° 69° (ENE) 11:03:39 145.980
HO-68 25 Nov 10:58:20 11:02:13 16° 326° (NNW) 11:06:04 435.675
EO-79 25 Nov 11:08:18 11:12:31 79° 75° (ENE) 11:16:46 145.935-145.965
NANOSAT C BR1 25 Nov 11:08:32 11:12:44 71° 72° (ENE) 11:16:57 145.865
BEESAT 2 25 Nov 11:13:57 11:17:51 46° 234° (SW) 11:21:41 435.950
AO-85 25 Nov 11:21:58 11:26:32 86° 223° (SW) 11:31:27 145.980
Gurwin Techsat 1B 25 Nov 11:23:44 11:27:32 20° 52° (NE) 11:31:20 435.225
AO-91 25 Nov 11:23:53 11:28:01 23° 57° (ENE) 11:32:02 145.960
POLYITAN 1 25 Nov 11:24:55 11:29:08 74° 255° (WSW) 11:33:23 437.675
AO-7 25 Nov 11:29:51 11:35:10 19° 28° (NNE) 11:40:30 .
BEESAT 3 25 Nov 11:30:43 11:32:38 13° 248° (WSW) 11:34:32 437.485
BUGSAT 1 25 Nov 11:30:52 11:34:35 32° 65° (ENE) 11:38:17 437.445
AIST 2D 25 Nov 11:40:40 11:43:06 18° 269° (W) 11:45:35 435.315
QB50P2 25 Nov 11:48:58 11:52:59 41° 262° (W) 11:57:00 145.880/145.840
EO-88 25 Nov 11:58:26 12:00:51 17° 300° (WNW) 12:03:16 145.990 - 145.960
Oscar 19 25 Nov 12:01:03 12:05:51 42° 64° (ENE) 12:10:41 437.125/150
DELFI C3 25 Nov 12:01:28 12:03:02 12° 306° (NW) 12:04:34 145.870
O/OREOS (USA 219) 25 Nov 12:03:46 12:06:53 18° 101° (E) 12:09:59 437.305
LO-87 25 Nov 12:07:30 12:11:02 65° 287° (WNW) 12:14:32 145.935 - 145.965
ESTCUBE 1 25 Nov 12:09:21 12:13:55 83° 105° (ESE) 12:18:27 437.505/2401.250
VELOX 1 25 Nov 12:10:45 12:13:55 19° 90° (E) 12:17:05 145.980
Max Valier Satellite 25 Nov 12:11:56 12:12:45 11° 306° (NW) 12:13:35 145.860
M-CUBED/EXP-1 PRIME 25 Nov 12:12:20 12:14:51 16° 47° (NE) 12:17:28 437.505
DUCHIFAT 1 25 Nov 12:32:06 12:35:30 23° 268° (W) 12:38:54 145.980
SPROUT 25 Nov 12:33:02 12:37:06 41° 98° (E) 12:41:06 437.525
DX 1 25 Nov 12:44:16 12:44:39 10° 84° (E) 12:45:02 434.975-435.025
NANOSAT C BR1 25 Nov 12:46:15 12:48:56 16° 271° (W) 12:51:36 145.865
EO-79 25 Nov 12:46:23 12:48:50 15° 272° (W) 12:51:17 145.935-145.965
AO-91 25 Nov 12:58:31 13:03:56 81° 256° (WSW) 13:09:13 145.960
Gurwin Techsat 1B 25 Nov 13:01:30 13:06:50 88° 72° (ENE) 13:12:12 435.225
AO-85 25 Nov 13:03:14 13:06:27 18° 245° (WSW) 13:09:48 145.980
POLYITAN 1 25 Nov 13:04:53 13:05:41 10° 276° (W) 13:06:30 437.675
BUGSAT 1 25 Nov 13:06:07 13:09:56 34° 263° (W) 13:13:44 437.445
UKube-1 25 Nov 13:15:14 13:17:20 13° 87° (E) 13:19:25 .
